DELTA 1 DEB, 42078

Orbit data source: Space-Track

DELTA 1 DEB, 42078 is space debris in SSO originally from a launch on Sun, 15 Dec 1968 UTC launched from the Air Force Western Test Range (AFWTR). Debris objects in space refer to the collection of defunct objects orbiting the Earth. Examples of debris include non-operational satellites, rocket bodies, and fragments generated from explosions, collisions, or faulty payload assembly.

Loading next visibility...
Identifier
42078, 1968-114E
Orbit
SSO
Country
Flag of USUS
Related business
Manufacturer
Aerojet
Mission
Spacecraft
Bus & Motor
Unknown
Mass
Unknown
Launch date (UTC)
1968-12-15 (57 years ago)
Launch vehicle
Unknown
Launch site
Air Force Western Test Range (AFWTR)
Object type
Payload
Rocket body
Debris
Shape & HBR
Unknown shape, 0.1 m
Radar Cross Section
Small (<0.1 m²)

Expand to show TLE details & history
Last TLE update: 3 days ago

TLE from 3 days ago
0 DELTA 1 DEB
1 42078U 68114E   25299.61260850  .00000014  00000-0  37100-3 0  9995
2 42078 101.4792 262.9249 0029050   2.4573 357.6636 12.50023473194027
Epoch: 2025-10-26T14:42Z
TLE epoch observation values (Epoch: 2025-10-26T14:42:09.374Z)
Latitude
-0.00006°
Longitude
7.15955°
Altitude
1,444.213 km
Speed
7.15 km/s
True Right ascension
17h 31m 41s
True Declination
0° 00' 00"
Sunlit
Object was in daylight at epoch
Visualization orbit readout
Latitude
Unknown
Longitude
Unknown
Altitude
Unknown
Speed
Unknown
Apparent Right ascension
Unknown
Apparent Declination
Unknown
Sunlit
N/A
Visualization observer readout
Local Sidereal Time
07:28:36
Azimuth
Unknown
Elevation
Unknown
Doppler factor
Unknown
Orbital elements
Apogee altitude
1,484.703 km
Perigee altitude
1,439.152 km
Semi-major axis
7,840.065 km
Eccentricity
0.00291
Inclination
101.4792°
RAAN
262.9249°
Arg. of periapsis
2.4573°
True anomaly
357.64998°
Mean anomaly
357.6636°
Eccentric anomaly
357.65679°
Mean motion
3.12654 °/min
Orbital period
115.14 mins
BSTAR
0.000371
Loading maneuver chart data...
Computing Atmospheric mass density...
Loading historical data...
Loading historical data...
Loading historical data...
Loading historical data...
Loading historical data...
Loading historical data...
Loading historical data...

Documentation

Showing up to 5 results
|